Location: Gorrie
(43.8742°N, 81.1087°W)
Time: 16:48:46
(UTC+00:00)

BREEZE-M DEB (TANK) - Pass Details

Date: 09 December 2025
Orbit: 307 x 15895 km, 49.3° (Epoch: 15 January)

Event Time Altitude Azimuth Distance (km) Brightness Sun altitude
Rises 00:46:19 0° 296° (WNW) 2,820 6.8 -31.5°
Reaches altitude 10° 00:47:41 10° 295° (WNW) 2,231 6.1 -31.7°
Maximum altitude 00:52:21 86° 208° (SSW) 1,381 4.1 -32.6°
Enters shadow 00:54:01 64° 125° (SE) 1,799 4.5 -32.9°
Exits shadow 01:25:17 - 124° (SE) 12,359 8.7 -38.5°
Sets 01:27:02 0° 125° (SE) 12,815 8.8 -38.8°
